Location: Bilsen
(53.7722°N, 9.8765°E)
Time: 10:53:10
(UTC+00:00)

Cosmos 2123 Rocket - Pass Details

Date: 18 February 2020
Orbit: 961 x 993 km, 82.9° (Epoch: 04 April)

Event Time Altitude Azimuth Distance (km) Brightness Sun altitude
Rises 05:49:30 0° 198° (SSW) 3,696 6.9 -7.3°
Reaches altitude 10° 05:52:02 10° 201° (SSW) 2,750 6.3 -6.9°
Maximum altitude 05:58:19 67° 284° (WNW) 1,072 4.0 -6.0°
Drops below altitude 10° 06:04:37 10° 7° (N) 2,751 6.3 -5.1°
Sets 06:07:10 0° 11° (N) 3,699 7.0 -4.7°
